Location: Sobotiste
(48.7170°N, 17.4000°E)
Time: 10:11:06
(UTC+02:00)

CAS-6 - Pass Details

Date: 21 March 2026
Orbit: 601 x 618 km, 97.8° (Epoch: 18 April)

Event Time Altitude Azimuth Distance (km) Brightness Sun altitude
Exits shadow 22:09:55 18° 329° (NNW) 1,506 ? -35.6°
Drops below altitude 10° 22:11:07 10° 335° (NNW) 1,961 ? -35.7°
Sets 22:13:23 0° 342° (NNW) 2,872 ? -35.9°
